{"data":{"norad_id":53837,"intl_designator":"2022-114V","name":"STARLINK-4776","alt_names":[],"object_type":"PAYLOAD","status":"ACTIVE","operator":null,"country":"US","launch_date":"2022-09-19","launch_site_code":"AFETR","launch_vehicle":null,"mission":null,"orbit_class":"UNKNOWN","rcs_meters":null,"size_class":null,"mass_kg":null,"dimensions":null,"purposes":["comms"],"wikipedia_slug":null,"has_3d_model":false,"image_url":null,"decayed_at":null,"tle_current":{"epoch":"2026-05-25T04:25:56.937792Z","epoch_age_seconds":56195,"freshness":"FRESH","line1":"1 53837U 22114V   26145.18468678  .00013445  00000+0  86284-3 0  9999","line2":"2 53837  53.2137 320.4317 0001363 107.4094 252.7047 15.08771576204388","mean_motion":15.08771576,"eccentricity":0.0001363,"inclination_deg":53.2137,"raan_deg":320.4317,"arg_perigee_deg":107.4094,"mean_anomaly_deg":252.7047,"bstar":0.00086284,"rev_number":20438,"period_min":95.441882847348,"perigee_km":539.00960605817,"apogee_km":540.89547726722,"semimajor_km":6918.0895416627,"source":"CELESTRAK","updated_at":"2026-05-25T13:38:17.573133Z"}}}